Home   Weather   Milan   Past weeks

Flag for Italy Past Weather in Milan, Italy — Yesterday and Last 2 Weeks

Now
30 °F

Ice fog.


Feels Like: 24 °F
Forecast: 40 / 47 °F
Wind: 6 mph from West

Location: Milan / Linate

Current Time: Dec 10, 2016 at 9:55:41 am

Latest Report: Dec 10, 2016 at 9:20 am


Visibility: 0 mi

Pressure: 30.39 "Hg

Humidity: 100%

Dew Point: 30 °F

Location of MilanLocation

Past Weather in Milan — Graph

°F

Milan Temperature Yesterday

Maximum temperature yesterday: 41 °F (at 2:50 pm)
Minimum temperature yesterday: 30 °F (at 1:50 am)
Average temperature yesterday: 33 °F

High & Low Weather Summary for the Past Weeks

 TemperatureHumidityPressure
High59 °F (Nov 26, 1:20 pm)100% (Nov 25, 10:20 am)30.66 "Hg (Nov 25, 10:20 am)
Low28 °F (Dec 8, 5:50 am)39% (Nov 29, 1:20 pm)29.86 "Hg (Nov 27, 2:20 pm)
Average43 °F87%30.26 "Hg
* Reported Nov 25 8:20 am — Dec 10 8:20 am, Milan, Weather by CustomWeather, © 2016

Note: Actual official high and low records may vary slightly from our data, if they occured in-between our weather recording intervals... More about our weather records

Advertising

Milan Weather History for the Previous 24 Hours

Scroll right to see more
 ConditionsComfort  
Time TempWeatherWind HumidityBarometerVisibility
8:20 am
Sat, Dec 10
30 °FIce fog.5 mph100%30.39 "Hg0 mi
7:50 am30 °FIce fog.5 mph100%30.39 "Hg0 mi
7:20 am30 °FIce fog.3 mph100%30.36 "Hg0 mi
6:50 am30 °FIce fog.3 mph100%30.39 "Hg0 mi
6:20 am30 °FIce fog.5 mph100%30.39 "Hg0 mi
5:50 am30 °FIce fog.2 mph100%30.39 "Hg0 mi
5:20 am30 °FIce fog.3 mph100%30.39 "Hg0 mi
4:50 am32 °FIce fog.3 mph100%30.39 "Hg0 mi
4:20 am32 °FIce fog.2 mph100%30.39 "Hg0 mi
3:50 am30 °FIce fog.No wind100%30.42 "Hg0 mi
3:20 am32 °FIce fog.No wind100%30.42 "Hg0 mi
2:50 am32 °FIce fog.1 mph100%30.42 "Hg0 mi
2:20 am32 °FIce fog.1 mph100%30.42 "Hg0 mi
1:50 am32 °FIce fog.1 mph100%30.42 "Hg0 mi
1:20 am32 °FIce fog.1 mph100%30.42 "Hg0 mi
12:50 am32 °FIce fog.2 mph100%30.42 "Hg0 mi
12:20 am32 °FFog.No wind100%30.45 "Hg0 mi
11:50 pm
Fri, Dec 9
32 °FFog.2 mph100%30.45 "Hg0 mi
11:20 pm32 °FFog.No wind100%30.45 "Hg0 mi
10:50 pm32 °FFog.No wind100%30.45 "Hg0 mi
10:20 pm34 °FFog.1 mph100%30.45 "Hg0 mi
9:50 pm32 °FFog.2 mph100%30.45 "Hg0 mi
9:20 pm34 °FFog.3 mph100%30.45 "Hg0 mi
8:50 pm34 °FFog.2 mph100%30.45 "Hg0 mi
8:20 pm34 °FFog.3 mph100%30.45 "Hg0 mi
7:50 pm34 °FFog.3 mph100%30.45 "Hg0 mi
7:20 pm34 °FFog.2 mph100%30.45 "Hg0 mi
6:50 pm34 °FFog.2 mph100%30.45 "Hg0 mi
6:20 pm34 °FFog.2 mph100%30.45 "Hg0 mi
5:50 pm36 °FFog.2 mph100%30.45 "Hg0 mi
5:20 pm36 °FFog.2 mph100%30.45 "Hg0 mi
4:50 pm36 °FFog.2 mph100%30.45 "Hg0 mi
3:50 pm37 °FFog.3 mph100%30.45 "Hg1 mi
3:20 pm39 °FFog.5 mph93%30.45 "Hg1 mi
2:50 pm41 °FFog.2 mph100%30.45 "Hg2 mi
2:20 pm39 °FFog.2 mph100%30.45 "Hg1 mi
1:50 pm37 °FFog.1 mph100%30.45 "Hg1 mi
1:20 pm36 °FFog.2 mph100%30.48 "Hg1 mi
12:50 pm36 °FFog.1 mph100%30.48 "Hg1 mi
12:20 pm34 °FFog.3 mph100%30.51 "Hg0 mi
11:50 am32 °FDrizzle. Fog.2 mph100%30.51 "Hg0 mi
11:20 am32 °FLight freezing rain. Ice fog.2 mph100%30.51 "Hg0 mi
10:50 am32 °FLight freezing rain. Ice fog.1 mph100%30.54 "Hg0 mi
10:20 am30 °FLight freezing rain. Ice fog.No wind100%30.54 "Hg0 mi
9:50 am30 °FLight freezing rain. Ice fog.3 mph100%30.54 "Hg0 mi
9:20 am30 °FLight freezing rain. Ice fog.1 mph100%30.51 "Hg0 mi
Weather by CustomWeather, © 2016

See weather overviewHow to use our weather pages